TimeHST,TemperatureF,Dew PointF,Humidity,Sea Level PressureIn,VisibilityMPH,Wind Direction,Wind SpeedMPH,Gust SpeedMPH,PrecipitationIn,Events,Conditions,WindDirDegrees,DateUTC
12:53 AM,68.0,64.0,87,29.94,10.0,West,4.6,-,N/A,,Partly Cloudy,270,2013-01-13 10:53:00
1:09 AM,69.8,64.4,83,29.95,10.0,Calm,Calm,-,N/A,,Mostly Cloudy,0,2013-01-13 11:09:00
1:20 AM,68.0,64.4,88,29.95,10.0,WSW,4.6,-,N/A,,Mostly Cloudy,240,2013-01-13 11:20:00
1:53 AM,68.0,64.9,90,29.94,10.0,West,4.6,-,N/A,,Scattered Clouds,260,2013-01-13 11:53:00
2:15 AM,68.0,64.4,88,29.94,10.0,West,5.8,-,N/A,,Mostly Cloudy,270,2013-01-13 12:15:00
2:53 AM,69.1,64.9,87,29.94,10.0,Calm,Calm,-,N/A,,Mostly Cloudy,0,2013-01-13 12:53:00
3:35 AM,68.0,64.4,88,29.93,10.0,West,3.5,-,N/A,,Scattered Clouds,260,2013-01-13 13:35:00
3:48 AM,69.8,64.4,83,29.94,10.0,Calm,Calm,-,N/A,,Mostly Cloudy,0,2013-01-13 13:48:00
3:53 AM,69.1,64.9,87,29.93,10.0,SW,3.5,-,N/A,,Mostly Cloudy,220,2013-01-13 13:53:00
4:06 AM,69.8,64.4,83,29.94,10.0,Calm,Calm,-,N/A,,Mostly Cloudy,0,2013-01-13 14:06:00
4:15 AM,71.6,66.2,83,29.94,10.0,South,8.1,-,N/A,,Scattered Clouds,170,2013-01-13 14:15:00
4:53 AM,72.0,66.9,84,29.93,10.0,South,5.8,-,N/A,,Mostly Cloudy,170,2013-01-13 14:53:00
5:11 AM,71.6,66.2,83,29.94,10.0,South,6.9,-,N/A,,Mostly Cloudy,170,2013-01-13 15:11:00
5:18 AM,71.6,66.2,83,29.94,10.0,South,5.8,-,N/A,,Mostly Cloudy,170,2013-01-13 15:18:00
5:32 AM,71.6,66.2,83,29.94,10.0,South,6.9,-,N/A,,Mostly Cloudy,170,2013-01-13 15:32:00
5:53 AM,72.0,66.0,81,29.94,10.0,South,8.1,-,N/A,,Mostly Cloudy,170,2013-01-13 15:53:00
6:05 AM,71.6,66.2,83,29.94,10.0,South,8.1,-,N/A,,Scattered Clouds,170,2013-01-13 16:05:00
6:53 AM,72.0,66.0,81,29.94,10.0,South,8.1,-,N/A,,Partly Cloudy,180,2013-01-13 16:53:00
7:05 AM,71.6,66.2,83,29.95,10.0,South,8.1,-,N/A,,Partly Cloudy,180,2013-01-13 17:05:00
7:53 AM,73.0,66.0,79,29.95,10.0,South,8.1,-,N/A,,Scattered Clouds,180,2013-01-13 17:53:00
8:20 AM,73.4,66.2,78,29.97,10.0,South,8.1,-,N/A,,Scattered Clouds,180,2013-01-13 18:20:00
8:30 AM,73.4,66.2,78,29.97,10.0,South,5.8,-,N/A,,Mostly Cloudy,190,2013-01-13 18:30:00
8:50 AM,75.2,66.2,73,29.97,10.0,South,8.1,-,N/A,,Scattered Clouds,190,2013-01-13 18:50:00
8:53 AM,75.0,68.0,79,29.97,10.0,South,6.9,-,N/A,,Partly Cloudy,180,2013-01-13 18:53:00
9:53 AM,75.9,68.0,76,29.97,10.0,South,11.5,-,N/A,,Partly Cloudy,180,2013-01-13 19:53:00
10:53 AM,75.0,66.9,76,29.96,10.0,South,10.4,-,N/A,,Mostly Cloudy,170,2013-01-13 20:53:00
11:39 AM,73.4,68.0,83,29.95,2.5,South,11.5,-,0.07,Rain,Heavy Rain,190,2013-01-13 21:39:00
11:53 AM,73.9,69.1,85,29.94,2.0,SSW,6.9,-,0.27,Rain,Light Rain,200,2013-01-13 21:53:00
12:00 PM,73.4,69.8,88,29.95,10.0,South,9.2,-,0.00,,Overcast,190,2013-01-13 22:00:00
12:35 PM,73.4,68.0,83,29.94,7.0,South,10.4,-,0.00,Rain,Rain,190,2013-01-13 22:35:00
12:42 PM,73.4,68.0,83,29.94,1.8,SSW,9.2,-,0.03,Rain,Heavy Rain,200,2013-01-13 22:42:00
12:50 PM,73.4,68.0,83,29.93,3.0,South,9.2,-,0.07,Rain,Light Rain,190,2013-01-13 22:50:00
12:53 PM,73.9,69.1,85,29.93,10.0,South,6.9,-,0.07,Rain,Light Rain,190,2013-01-13 22:53:00
1:53 PM,75.0,68.0,79,29.92,10.0,South,8.1,-,0.00,,Mostly Cloudy,170,2013-01-13 23:53:00
2:42 PM,73.4,64.4,73,29.93,6.0,SW,5.8,-,0.00,Rain,Light Rain,220,2013-01-14 00:42:00
2:47 PM,71.6,64.4,78,29.93,3.0,SSW,5.8,-,0.01,Rain,Rain,210,2013-01-14 00:47:00
2:53 PM,71.1,64.9,81,29.93,2.0,SSW,3.5,-,0.03,Rain,Heavy Rain,210,2013-01-14 00:53:00
2:58 PM,71.6,64.4,78,29.93,2.0,WSW,3.5,-,0.02,Rain,Heavy Rain,240,2013-01-14 00:58:00
3:18 PM,71.6,66.2,83,29.93,5.0,West,4.6,-,0.04,Rain,Light Rain,270,2013-01-14 01:18:00
3:27 PM,71.6,68.0,88,29.93,9.0,NW,4.6,-,0.04,,Overcast,310,2013-01-14 01:27:00
3:53 PM,71.1,68.0,90,29.93,3.0,South,3.5,-,0.04,Rain,Rain,190,2013-01-14 01:53:00
3:57 PM,71.6,68.0,88,29.94,1.5,SSW,4.6,-,0.02,Rain,Heavy Rain,200,2013-01-14 01:57:00
4:16 PM,71.6,66.2,83,29.95,1.0,South,8.1,-,0.22,Rain,Heavy Rain,170,2013-01-14 02:16:00
4:33 PM,69.8,68.0,94,29.94,2.5,South,3.5,-,0.32,Rain,Rain,170,2013-01-14 02:33:00
4:42 PM,71.6,68.0,88,29.94,3.0,SE,8.1,-,0.34,Rain,Rain,140,2013-01-14 02:42:00
4:49 PM,71.6,68.0,88,29.94,6.0,SE,8.1,-,0.34,Rain,Light Rain,140,2013-01-14 02:49:00
4:53 PM,71.1,69.1,93,29.94,8.0,SE,9.2,-,0.34,Rain,Light Rain,140,2013-01-14 02:53:00
5:05 PM,71.6,69.8,94,29.94,4.0,South,10.4,-,0.01,Rain,Light Rain,170,2013-01-14 03:05:00
5:14 PM,71.6,68.0,88,29.94,10.0,South,8.1,-,0.01,Rain,Light Rain,180,2013-01-14 03:14:00
5:23 PM,71.6,68.0,88,29.94,10.0,South,6.9,-,0.01,,Overcast,190,2013-01-14 03:23:00
5:53 PM,71.1,69.1,93,29.94,8.0,SSW,4.6,-,0.02,Rain,Light Rain,200,2013-01-14 03:53:00
6:03 PM,71.6,69.8,94,29.94,8.0,Calm,Calm,-,0.00,Rain,Light Rain,0,2013-01-14 04:03:00
6:25 PM,71.6,69.8,94,29.95,10.0,Calm,Calm,-,0.00,Rain,Light Rain,0,2013-01-14 04:25:00
6:53 PM,71.1,68.0,90,29.95,7.0,SW,3.5,-,0.02,Rain,Rain,230,2013-01-14 04:53:00
7:10 PM,71.6,68.0,88,29.96,6.0,Calm,Calm,-,0.00,Rain,Light Rain,0,2013-01-14 05:10:00
7:17 PM,71.6,68.0,88,29.96,10.0,SSE,5.8,-,0.00,,Overcast,150,2013-01-14 05:17:00
7:32 PM,71.6,68.0,88,29.95,10.0,SSE,3.5,-,0.01,,Overcast,150,2013-01-14 05:32:00
7:53 PM,72.0,69.1,91,29.96,5.0,SE,5.8,-,0.02,Rain,Rain,140,2013-01-14 05:53:00
8:24 PM,71.6,69.8,94,29.96,4.0,Calm,Calm,-,0.07,Rain,Light Rain,0,2013-01-14 06:24:00
8:41 PM,71.6,69.8,94,29.96,4.0,SSE,4.6,-,0.11,Rain,Rain,160,2013-01-14 06:41:00
8:53 PM,72.0,69.1,91,29.96,4.0,West,3.5,-,0.16,Rain,Rain,260,2013-01-14 06:53:00
9:01 PM,71.6,68.0,88,29.96,2.0,West,5.8,-,0.06,Rain,Heavy Rain,260,2013-01-14 07:01:00
9:11 PM,71.6,68.0,88,29.96,3.0,WNW,4.6,-,0.14,Rain,Rain,300,2013-01-14 07:11:00
9:21 PM,71.6,68.0,88,29.96,10.0,WNW,5.8,-,0.14,Rain,Light Rain,300,2013-01-14 07:21:00
9:53 PM,71.1,68.0,90,29.95,10.0,WSW,4.6,-,0.14,Rain,Light Rain,240,2013-01-14 07:53:00
10:53 PM,-9999,-9999,N/A,29.94,10.0,WSW,5.8,-,0.01,,Overcast,250,2013-01-14 08:53:00
11:25 PM,-9999,-9999,N/A,29.94,10.0,WSW,10.4,-,N/A,,Overcast,250,2013-01-14 09:25:00
11:50 PM,-9999,-9999,N/A,29.94,5.0,SW,8.1,-,0.01,Rain,Light Rain,230,2013-01-14 09:50:00
11:53 PM,69.8,68.0,94,29.93,5.0,SW,5.8,-,0.01,Rain,Light Rain,220,2013-01-14 09:53:00